Location: Praha
(50.0830°N, 14.4670°E)
Time: 11:17:54
(UTC+02:00)

ISS - Pass Details

Date: 05 May 2021
Orbit: 417 x 422 km, 51.6° (Epoch: 15 May)

Event Time Altitude Azimuth Distance (km) Brightness Sun altitude
Exits shadow 03:34:10 34° 240° (WSW) 708 -3.1 -15.4°
Maximum altitude 03:35:28 76° 161° (SSE) 438 -3.8 -15.2°
Drops below altitude 10° 03:38:51 10° 75° (ENE) 1,508 -0.1 -14.9°
Sets 03:40:57 0° 74° (ENE) 2,375 1.1 -14.7°
